Starlink 32901

operational
NORAD ID: 62895 Int'l Des: 2025-024 Owner: SPXS Country: US Constellation: starlink
LEOCIRCULAR

Über Starlink 32901

Beschreibung wird geladen...

Live-Position

3D-Globus wird geladen...

Nächste Überflüge

Höhenverlauf

Altitude vs Time

uPlot chart will show altitude changes over time

Zweizeiliger Elementsatz

1 62895U 25024S 26036.69250780 .00024732 00000-0 90422-3 0 9995
2 62895 43.0004 145.9549 0001280 270.1838 89.8867 15.27617584 57374
Epoch: 5. Feb. 2026 • Age: 9 hours

Aktueller Status

Höhe 482.3 km
Geschwindigkeit 7.63 km/s
Subsatellitenpunkt 5.34°N, 163.77°E
Startdatum 4. Feb. 2025
Alter 1 years
Typ internet

Technische Details

Klassifizierung Payload
Masse 730.00 kg
Trockenmasse 700.00 kg
Gesamtmasse 730.00 kg
Länge 0.30 m
Durchmesser 4.10 m
Spannweite 29.00 m
Form Box + pan
Hersteller SPXS
Bus-Typ Starlink V2M
Phasenstatus In Orbit
Besitzer/Staat SPXS/US

Große Konstellationen

Loading constellations...